This demonstration page uses our WeatherBlox Daily Observations layout. Learn more.

Left ArrowRight Arrow

Hourly Observations for April 5, 2022

Temp ( °F °C ) Dew Point ( °F °C ) Humidity (%) Winds ( mph kmh ) Pressure ( in mb ) Visibility ( mi km ) Precip ( " mm )
12:56 am 00:56 Mostly Cloudy 43 5.9 31 -0.8 62 62 SE 6 9 29.71 1006 10 16 0.00 0.00
1:56 am 01:56 Mostly Cloudy 42 5.7 31 -0.4 65 65 SSE 8 13 29.69 1005 10 16 0.00 0.00
2:56 am 02:56 Mostly Cloudy 42 5.8 32 -0.1 66 66 SSE 9 15 29.65 1004 10 16 0.00 0.00
3:56 am 03:56 Cloudy 43 6.2 33 0.5 67 67 SSE 6 9 29.60 1002 10 16 0.00 0.00
4:56 am 04:56 Cloudy 43 6.2 33 0.7 68 68 SE 8 13 29.58 1002 10 16 0.00 0.00
5:59 am 05:59 Mostly Cloudy 44 6.7 33 0.6 65 65 S 3 6 29.58 1002 10 16 0.00 0.00
6:56 am 06:56 Mostly Cloudy 44 6.5 33 0.8 67 67 SE 8 13 29.57 1001 10 16 0.00 0.00
7:56 am 07:56 Partly Cloudy 44 6.5 34 1 68 68 SSE 10 17 29.48 998 10 16 0.00 0.00
8:56 am 08:56 Mostly Cloudy 47 8.3 37 2.9 69 69 S 9 15 29.49 999 10 16 0.00 0.00
9:56 am 09:56 Mostly Cloudy with Light Showers 48 9.1 41 4.9 75 75 SSE 14 22 29.49 999 8 13 0.00 0.00
10:56 am 10:56 Mostly Cloudy with Light Showers 49 9.6 45 7.2 85 85 SE 12 19 29.49 999 9 14 0.00 0.00
11:56 am 11:56 Mostly Cloudy with Light Showers 51 10.3 47 8.2 87 87 SW 6 9 29.49 999 8 13 0.00 0.00
12:56 pm 12:56 undefined 56 13.3 50 9.9 80 80 SSW 13 20 29.45 997 10 16 0.00 0.00
1:56 pm 13:56 undefined 56 13.6 49 9.2 75 75 SW 10 17 29.41 996 10 16 0.00 0.00
2:56 pm 14:56 undefined 56 13.5 49 9.2 75 75 WSW 9 15 29.44 997 10 16 0.00 0.00
3:56 pm 15:56 Mostly Cloudy 57 14.1 48 8.9 71 71 WSW 14 22 29.46 998 10 16 0.00 0.00
4:08 pm 16:08 Mostly Cloudy 57 14 48 9 72 72 WNW 22 35 29.48 998 10 16 0.00 0.00
4:56 pm 16:56 Cloudy 52 11.1 37 2.9 57 57 NW 23 37 29.54 1000 10 16 0.00 0.00
5:56 pm 17:56 Cloudy 50 10.2 35 1.6 55 55 NNW 12 19 29.54 1000 10 16 0.00 0.00
6:56 pm 18:56 Mostly Cloudy 51 10.6 33 0.3 49 49 NW 13 20 29.59 1002 10 16 0.00 0.00
7:56 pm 19:56 Cloudy 51 10.5 29 -1.6 43 43 NNW 7 11 29.60 1002 10 16 0.00 0.00
8:56 pm 20:56 Mostly Cloudy 48 9 31 -0.6 51 51 Calm 29.60 1002 10 16 0.00 0.00
9:56 pm 21:56 Mostly Cloudy 46 7.6 33 0.6 62 62 S 3 6 29.62 1003 10 16 0.00 0.00
10:56 pm 22:56 Partly Cloudy 44 6.7 34 1 67 67 W 5 7 29.64 1004 10 16 0.00 0.00
11:56 pm 23:56 Mostly Cloudy 44 6.5 32 0 64 64 W 7 11 29.67 1005 10 16 0.00 0.00

Powered by AerisWeather